Weather History for PAHN - November, 2012

Change the Weather History Date:

Sunday, November 25, 2012

  Actual Average Record
Temperature  
Mean Temperature 22 °F -  
Max Temperature 25 °F 33 °F 48 °F (2005)
Min Temperature 19 °F 25 °F 3 °F (2006)
Degree Days  
Heating Degree Days 43    
Moisture  
Dew Point 14 °F    
Average Humidity 70    
Maximum Humidity 81    
Minimum Humidity 57    
Precipitation  
Precipitation 0.00 in - - ()
Sea Level Pressure  
Sea Level Pressure 30.23 in    
Wind  
Wind Speed 12 mph (NW)    
Max Wind Speed 17 mph    
Max Gust Speed 22 mph    
Visibility 9 miles    
Events Snow    
Averages and records for this station are not official NWS values.
T = Trace of Precipitation, MM = Missing Value Source: NWS Daily Summary

Daily Weather History Graph

Daily Weather History Graph

Search for Another Location

Airport or City:

Trip Planner

Search our weather history database for the weather conditions in past years. The results will help you decide how hot, cold, wet, or windy it might be!

Date:

Astronomy

Nov. 25, 2012 Rise Set
Actual Time 8:20 AM AKST 3:17 PM AKST
Civil Twilight 7:29 AM AKST 4:08 PM AKST
Nautical Twilight 6:36 AM AKST 5:01 PM AKST
Astronomical Twilight 5:47 AM AKST 5:49 PM AKST
Moon 2:03 PM AKST (11/25) 5:12 AM AKST (11/25)
Length of Visible Light 8h 39m
Length of Day
6h 57m
Waxing Gibbous, 93% of the Moon is Illuminated
Nov 25
Waxing Gibbous
Nov 28
Full
Dec 6
Last Quarter
Dec 12
New
Dec 19
First Quarter

Hourly Weather History & Observations

Time (AKST) Temp. Windchill Dew Point Humidity Pressure Visibility Wind Dir Wind Speed Gust Speed Precip Events Conditions
12:54 AM 21.0 °F 8.6 °F 9.0 °F 60% 30.16 in 10.0 mi WNW 12.7 mph - N/A   Clear
1:54 AM 19.9 °F 5.7 °F 10.0 °F 65% 30.17 in 10.0 mi WNW 16.1 mph - N/A   Scattered Clouds
2:54 AM 19.0 °F 6.8 °F 9.0 °F 65% 30.18 in 10.0 mi WNW 11.5 mph - N/A   Clear
3:54 AM 19.9 °F 7.9 °F 10.0 °F 65% 30.19 in 10.0 mi WNW 11.5 mph - N/A   Overcast
4:54 AM 19.9 °F 7.9 °F 9.0 °F 62% 30.19 in 10.0 mi WNW 11.5 mph - N/A   Overcast
5:54 AM 19.0 °F 6.1 °F 10.9 °F 71% 30.20 in 10.0 mi WNW 12.7 mph - N/A   Mostly Cloudy
6:54 AM 19.0 °F 6.1 °F 10.0 °F 68% 30.20 in 10.0 mi WNW 12.7 mph - N/A   Overcast
7:54 AM 21.0 °F 7.6 °F 9.0 °F 60% 30.20 in 10.0 mi NW 15.0 mph 20.7 mph N/A   Overcast
8:54 AM 19.9 °F 7.9 °F 12.0 °F 71% 30.20 in 10.0 mi WNW 11.5 mph - N/A   Overcast
9:54 AM 21.0 °F 8.6 °F 12.0 °F 68% 30.22 in 10.0 mi WNW 12.7 mph - N/A   Overcast
10:54 AM 24.1 °F 12.0 °F 10.9 °F 57% 30.21 in 10.0 mi NW 13.8 mph 21.9 mph N/A   Overcast
11:54 AM 24.1 °F 14.4 °F 12.0 °F 60% 30.21 in 10.0 mi NW 9.2 mph - N/A   Overcast
12:54 PM 24.1 °F 10.6 °F 12.9 °F 62% 30.22 in 10.0 mi NW 17.3 mph 21.9 mph N/A   Overcast
1:54 PM 25.0 °F 14.8 °F 14.0 °F 63% 30.23 in 10.0 mi NW 10.4 mph - N/A   Overcast
2:54 PM 24.1 °F 13.7 °F 15.1 °F 69% 30.23 in 10.0 mi WNW 10.4 mph - N/A   Overcast
3:23 PM 23.0 °F 14.7 °F 17.6 °F 80% 30.23 in 2.5 mi NW 6.9 mph - 0.00 in Snow Light Snow
3:31 PM 23.0 °F 13.1 °F 17.6 °F 80% 30.23 in 3.0 mi WNW 9.2 mph 17.3 mph 0.00 in Snow Light Snow
3:54 PM 23.0 °F 13.9 °F 17.1 °F 78% 30.25 in 8.0 mi WNW 8.1 mph - 0.00 in   Overcast
4:54 PM 23.0 °F 11.7 °F 17.1 °F 78% 30.25 in 10.0 mi WNW 11.5 mph - N/A   Overcast
5:54 PM 24.1 °F 14.4 °F 18.0 °F 77% 30.26 in 10.0 mi NNW 9.2 mph 16.1 mph N/A   Overcast
6:54 PM 23.0 °F 11.1 °F 18.0 °F 81% 30.28 in 8.0 mi NW 12.7 mph 18.4 mph 0.00 in Snow Light Snow
7:54 PM 23.0 °F 12.4 °F 17.1 °F 78% 30.29 in 7.0 mi NNW 10.4 mph - 0.00 in Snow Light Snow
8:54 PM 23.0 °F 11.1 °F 18.0 °F 81% 30.31 in 9.0 mi NW 12.7 mph - 0.00 in   Overcast
9:54 PM 23.0 °F 11.7 °F 17.1 °F 78% 30.32 in 10.0 mi NW 11.5 mph 19.6 mph N/A   Overcast
10:54 PM 23.0 °F 10.6 °F 17.1 °F 78% 30.33 in 10.0 mi NW 13.8 mph - N/A   Overcast
11:54 PM 23.0 °F 11.7 °F 17.1 °F 78% 30.34 in 10.0 mi NNW 11.5 mph - N/A   Overcast